This demonstration page uses our WeatherBlox Daily Observations layout. Learn more.

Hourly Observations for January 8, 2016

Temp ( °F °C ) Dew Point ( °F °C ) Humidity (%) Winds ( mph kmh ) Pressure ( in mb ) Visibility ( mi km ) Precip ( " mm )
12:15 am 00:15 Cloudy with Light Snow 29 -1.5 29 -1.7 99 99 N 10 17 29.88 1012 4 6.43736 0 0
12:35 am 00:35 Cloudy with Light Snow 29 -1.5 29 -1.8 98 98 N 10 17 29.88 1012 4 6.43736 0 0
12:55 am 00:55 Cloudy with Light Snow 29 -1.7 28 -2 98 98 N 8 13 29.88 1012 7 11.26538 0 0
1:15 am 01:15 Cloudy 29 -1.8 28 -2.1 98 98 N 10 17 29.88 1012 7 11.26538 0 0
1:35 am 01:35 Cloudy with Mist and Fog 28 -2 28 -2.3 98 98 N 12 19 29.88 1012 5 8.0467 0 0
1:55 am 01:55 Cloudy 28 -2 28 -2.3 98 98 NNW 13 20 29.88 1012 7 11.26538 0 0
2:15 am 02:15 Cloudy 28 -2 28 -2.5 96 96 N 12 19 29.88 1012 7 11.26538 0 0
2:35 am 02:35 Cloudy with Light Snow 28 -2.1 27 -2.6 96 96 N 10 17 29.88 1012 5 8.0467 0 0
2:55 am 02:55 Cloudy with Light Snow 28 -2.1 27 -2.6 96 96 N 13 20 29.88 1012 3 4.82802 0 0
3:15 am 03:15 Cloudy with Light Snow 28 -2.2 27 -2.8 96 96 NNW 10 17 29.88 1012 3 4.82802 0 0
3:35 am 03:35 Cloudy with Light Snow 28 -2.2 27 -2.8 96 96 NNW 8 13 29.88 1012 2 3.21868 0 0
3:55 am 03:55 Cloudy with Light Snow 28 -2.4 27 -3 96 96 NNW 10 17 29.88 1012 3 4.82802 0 0
4:15 am 04:15 Cloudy with Light Snow 28 -2.5 26 -3.1 96 96 N 13 20 29.88 1012 2.5 4.02335 0 0
4:35 am 04:35 Cloudy with Light Snow 27 -2.6 26 -3.2 96 96 NNW 10 17 29.91 1013 3 4.82802 0 0
4:55 am 04:55 Cloudy with Light Snow 27 -2.6 26 -3.3 95 95 NNW 15 24 29.91 1013 4 6.43736 0 0
5:15 am 05:15 Cloudy with Light Snow 27 -3 25 -3.7 95 95 NNW 13 20 29.91 1013 3 4.82802 0 0
5:35 am 05:35 Cloudy with Light Snow 26 -3.3 25 -4 95 95 NNW 13 20 29.94 1014 1.75 2.816345 0 0
5:55 am 05:55 Cloudy with Light Snow 26 -3.5 25 -4.1 96 96 NNW 12 19 29.94 1014 1.75 2.816345 0 0
6:15 am 06:15 Cloudy with Light Snow 26 -3.5 24 -4.3 94 94 NNW 12 19 29.94 1014 1.25 2.011675 0 0
6:35 am 06:35 Cloudy with Light Snow 25 -3.7 24 -4.5 94 94 NNW 13 20 29.94 1014 1.75 2.816345 0 0
6:55 am 06:55 Cloudy with Light Snow 25 -3.7 24 -4.5 94 94 NNW 13 20 29.94 1014 2 3.21868 0.01 0.254
7:15 am 07:15 Cloudy with Light Snow 25 -3.7 24 -4.5 94 94 NNW 13 20 29.94 1014 3 4.82802 0 0
7:35 am 07:35 Cloudy with Light Snow 25 -4 24 -4.7 95 95 NNW 13 20 29.94 1014 4 6.43736 0 0
7:55 am 07:55 Cloudy with Light Snow 25 -4.1 23 -5 94 94 NNW 12 19 29.94 1014 5 8.0467 0 0
8:15 am 08:15 Cloudy with Light Snow 25 -4 23 -4.8 94 94 NNW 10 17 29.97 1015 3 4.82802 0 0
8:35 am 08:35 Cloudy with Light Snow 25 -3.8 24 -4.6 94 94 N 12 19 29.97 1015 2.5 4.02335 0 0
8:55 am 08:55 Cloudy with Light Snow 25 -3.7 24 -4.6 94 94 NNW 12 19 29.97 1015 3 4.82802 0 0
9:15 am 09:15 Cloudy 25 -3.7 24 -4.7 93 93 NNW 12 19 30 1016 7 11.26538 0 0
9:35 am 09:35 Cloudy 25 -3.7 24 -4.7 93 93 NNW 13 20 30 1016 10 16.0934 0 0
9:55 am 09:55 Cloudy 26 -3.5 24 -4.6 92 92 NNW 15 24 30 1016 10 16.0934 0 0
10:15 am 10:15 Cloudy with Mist and Fog 26 -3.5 24 -4.5 93 93 NNW 9 15 30 1016 4 6.43736 0 0
10:35 am 10:35 Cloudy 26 -3.3 24 -4.5 92 92 NNW 16 26 30 1016 7 11.26538 0 0
10:55 am 10:55 Cloudy with Light Snow 26 -3.2 24 -4.3 92 92 NNW 14 22 30.03 1017 5 8.0467 0 0
11:15 am 11:15 Cloudy with Light Snow 26 -3.2 24 -4.5 91 91 NNW 13 20 30.03 1017 3 4.82802 0 0
11:35 am 11:35 Cloudy with Light Snow 26 -3.1 24 -4.5 90 90 NNW 17 28 30.03 1017 2.5 4.02335 0 0
11:55 am 11:55 Cloudy with Light Snow 27 -2.9 24 -4.2 91 91 NNW 18 30 30.03 1017 2.5 4.02335 0 0
12:15 pm 12:15 Cloudy with Light Snow 27 -2.6 25 -4 90 90 N 16 26 30 1016 2 3.21868 0 0
12:35 pm 12:35 Cloudy with Light Snow 28 -2.5 25 -3.9 90 90 NNW 12 19 30 1016 2 3.21868 0 0
12:55 pm 12:55 Cloudy with Light Snow 28 -2.5 25 -3.8 91 91 N 13 20 30 1016 3 4.82802 0 0
1:15 pm 13:15 Cloudy 28 -2.5 25 -4 90 90 N 13 20 30 1016 10 16.0934 0 0
1:35 pm 13:35 Cloudy with Light Snow 28 -2.3 25 -3.8 90 90 N 15 24 30 1016 5 8.0467 0 0
1:55 pm 13:55 Cloudy with Light Snow 28 -2.2 26 -3.6 90 90 N 12 19 30 1016 2.5 4.02335 0 0
2:15 pm 14:15 Cloudy with Light Snow 28 -2.3 25 -3.9 89 89 N 15 24 30 1016 2.5 4.02335 0 0
2:35 pm 14:35 Cloudy with Light Snow 28 -2.2 25 -3.9 88 88 N 13 20 30.03 1017 3 4.82802 0 0
2:55 pm 14:55 Cloudy with Light Snow 28 -2.3 25 -4 88 88 N 16 26 30.03 1017 2.5 4.02335 0 0
3:15 pm 15:15 Cloudy with Light Snow 28 -2.2 25 -3.8 89 89 N 14 22 30.03 1017 3 4.82802 0 0
3:35 pm 15:35 Cloudy with Light Snow 28 -2.1 25 -3.8 88 88 N 15 24 30.03 1017 7 11.26538 0 0
3:55 pm 15:55 Cloudy with Light Snow 28 -2.2 25 -4 88 88 N 13 20 30.03 1017 5 8.0467 0 0
4:15 pm 16:15 Cloudy with Mist and Fog 28 -2.2 24 -4.2 86 86 N 14 22 30.06 1018 5 8.0467 0 0
4:35 pm 16:35 Cloudy with Mist and Fog 28 -2.3 25 -4.1 88 88 N 10 17 30.06 1018 4 6.43736 0 0
4:55 pm 16:55 Cloudy with Light Snow 28 -2.5 25 -4.1 89 89 N 14 22 30.06 1018 4 6.43736 0 0
5:15 pm 17:15 Cloudy with Light Snow 27 -2.6 25 -4 90 90 N 13 20 30.06 1018 5 8.0467 0 0
5:35 pm 17:35 Cloudy with Light Snow 27 -2.7 25 -4 91 91 N 10 17 30.09 1019 2.5 4.02335 0 0
5:55 pm 17:55 Cloudy with Light Snow 27 -3 25 -4.1 92 92 N 10 17 30.09 1019 3 4.82802 0 0
6:15 pm 18:15 Cloudy with Light Snow 26 -3.1 24 -4.3 92 92 N 9 15 30.09 1019 5 8.0467 0 0
6:35 pm 18:35 Cloudy 26 -3.2 24 -4.5 91 91 N 10 17 30.09 1019 10 16.0934 0 0
6:55 pm 18:55 Cloudy with Light Snow 26 -3.1 24 -4.5 90 90 N 13 20 30.12 1020 10 16.0934 0 0
7:15 pm 19:15 Cloudy with Light Snow 26 -3.2 24 -4.6 90 90 N 9 15 30.12 1020 7 11.26538 0 0
7:35 pm 19:35 Cloudy with Light Snow 26 -3.5 23 -4.8 91 91 N 10 17 30.12 1020 7 11.26538 0 0
7:55 pm 19:55 Cloudy with Light Snow 26 -3.5 23 -5 89 89 N 12 19 30.12 1020 5 8.0467 0 0
8:15 pm 20:15 Cloudy with Light Snow 25 -3.7 23 -5.2 89 89 N 12 19 30.15 1021 5 8.0467 0 0
8:35 pm 20:35 Cloudy with Light Snow 25 -3.9 23 -5.2 91 91 N 12 19 30.15 1021 5 8.0467 0 0
8:55 pm 20:55 Cloudy with Light Snow 25 -4.1 22 -5.4 91 91 N 12 19 30.15 1021 5 8.0467 0 0
9:15 pm 21:15 Mostly Cloudy with Scattered Snow Showers 24 -4.3 22 -5.5 91 91 N 7 11 30.15 1021 7 11.26538 0 0
9:35 pm 21:35 Mostly Cloudy 24 -4.5 22 -5.6 92 92 N 12 19 30.15 1021 10 16.0934 0 0
9:55 pm 21:55 Cloudy 24 -4.5 21 -6 89 89 N 14 22 30.15 1021 10 16.0934 0 0
10:15 pm 22:15 Mostly Cloudy with Scattered Snow Showers 24 -4.6 21 -6.2 89 89 N 10 17 30.18 1022 4 6.43736 0 0
10:35 pm 22:35 Cloudy with Light Snow 24 -4.6 21 -6.1 89 89 N 13 20 30.18 1022 4 6.43736 0 0
10:55 pm 22:55 Cloudy with Light Snow 24 -4.7 20 -6.5 87 87 N 12 19 30.18 1022 4 6.43736 0 0
11:15 pm 23:15 Cloudy with Light Snow 23 -5 20 -6.6 89 89 N 8 13 30.18 1022 4 6.43736 0 0
11:35 pm 23:35 Cloudy with Light Snow 23 -5.1 20 -6.6 89 89 N 7 11 30.18 1022 5 8.0467 0 0
11:55 pm 23:55 Cloudy with Light Snow 22 -5.5 20 -6.8 91 91 NNW 9 15 30.18 1022 7 11.26538 0 0

Powered by AerisWeather